GW4212 Weather Reports


time (UTC)temp
C
wind
direction
speed
KPH
gust
KPH
rain 1hr
cm
rain 24hr
cm
rain mn
cm
humidity
%
barometer
mb
20260504081941 27 0.0 0.0 0.00 0.00 0.00 99 1013.8
20260504080935 24 0.0 0.0 0.00 0.00 0.00 99 1014.0
20260504050330 17 0.0 0.0 0.00 0.00 0.00 99 1013.7
20260504045312 17 0.0 0.0 0.00 0.00 0.00 99 1013.6
20260504044244 17 0.0 0.0 0.00 0.00 0.00 99 1013.4
20260504043233 17 0.0 0.0 0.00 0.00 0.00 99 1013.3
20260504042221 17 0.0 0.0 0.00 0.00 0.00 99 1013.3
20260504041154 17 0.0 0.0 0.00 0.00 0.00 99 1013.3
20260504040048 17 0.0 0.0 0.00 0.00 0.00 99 1013.3
20260504035030 17 0.0 0.0 0.00 0.00 0.00 99 1013.6
20260504034019 17 0.0 0.0 0.00 0.00 0.00 99 1013.8
20260504033008 17 0.0 0.0 0.00 0.00 0.00 99 1014.0
20260504031856 17 0.0 0.0 0.00 0.00 0.00 99 1014.2
20260504030844 17 0.0 0.0 0.00 0.00 0.00 99 1014.3
20260504025848 16 0.0 0.0 0.00 0.00 0.00 99 1014.4
20260504021552 16 0.0 0.0 0.00 0.00 0.00 99 1014.4
20260504020541 16 0.0 0.0 0.00 0.00 0.00 99 1014.5
20260504015529 16 0.0 0.0 0.00 0.00 0.00 99 1014.5
20260504014524 16 0.0 0.0 0.00 0.00 0.00 99 1014.6
20260504013507 16 0.0 0.0 0.00 0.00 0.00 99 1014.6
20260504012456 16 0.0 0.0 0.00 0.00 0.00 99 1014.6
20260504011445 16 0.0 0.0 0.00 0.00 0.00 99 1014.5
20260504010417 16 0.0 0.0 0.00 0.00 0.00 99 1014.5
20260504005406 16 0.0 0.0 0.00 0.00 0.00 99 1014.5
20260504004358 17 0.0 0.0 0.00 0.00 0.00 99 1014.4
20260504003236 17 0.0 0.0 0.00 0.00 0.00 99 1014.3
20260504002225 16 0.0 0.0 0.00 0.00 0.00 99 1014.5
20260504001214 17 0.0 0.0 0.00 0.00 0.00 99 1014.5
20260504000204 17 0.0 0.0 0.00 0.00 0.00 99 1014.6
20260503235151 17 0.0 0.0 0.00 0.00 0.00 99 1014.6
20260503234145 17 0.0 0.0 0.00 0.00 0.00 99 1014.8
20260503233128 17 0.0 0.0 0.00 0.00 0.00 99 1014.9
20260503232016 17 0.0 0.0 0.00 0.00 0.00 99 1015.1
20260503231004 17 0.0 0.0 0.00 0.00 0.00 99 1015.1
20260503225953 17 0.0 0.0 0.00 0.00 0.00 99 1015.1
20260503224941 17 0.0 0.0 0.00 0.00 0.00 99 1015.3
20260503223918 17 0.0 0.0 0.00 0.00 0.00 99 1015.4
20260503222903 17 0.0 0.0 0.00 0.00 0.00 99 1015.5
20260503221852 17 0.0 0.0 0.00 0.00 0.00 99 1015.4
20260503220840 17 0.0 0.0 0.00 0.00 0.00 99 1015.4
20260503215829 17 0.0 0.0 0.00 0.00 0.00 99 1015.4
20260503214818 17 0.0 0.0 0.00 0.00 0.00 99 1015.5
20260503213812 17 0.0 0.0 0.00 0.00 0.00 99 1015.5
20260503212755 17 0.0 0.0 0.00 0.00 0.00 99 1015.6
20260503211744 17 0.0 0.0 0.00 0.00 0.00 99 1015.5
20260503210732 17 0.0 0.0 0.00 0.00 0.00 99 1015.4
20260503205722 17 0.0 0.0 0.00 0.00 0.00 99 1015.3
20260503204711 17 0.0 0.0 0.00 0.00 0.00 99 1015.3
20260503203704 17 0.0 0.0 0.00 0.00 0.00 99 1015.3
20260503202546 16 0.0 0.0 0.00 0.00 0.00 99 1015.1
20260503201536 16 0.0 0.0 0.00 0.00 0.00 99 1015.0
20260503200524 16 0.0 0.0 0.00 0.00 0.00 99 1014.8
20260503195512 16 0.0 0.0 0.00 0.00 0.00 99 1014.6
20260503194502 16 0.0 0.0 0.00 0.00 0.00 99 1014.5
20260503193456 16 0.0 0.0 0.00 0.00 0.00 99 1014.2
20260503192439 16 0.0 0.0 0.00 0.00 0.00 99 1014.0
20260503191119 16 0.0 0.0 0.00 0.00 0.00 99 1013.9
20260503190108 16 0.0 0.0 0.00 0.00 0.00 99 1014.0
20260503185057 17 0.0 0.0 0.00 0.00 0.00 99 1014.0
20260503184046 17 0.0 0.0 0.00 0.00 0.00 99 1013.9
20260503183041 17 0.0 0.0 0.00 0.00 0.00 99 1013.7
20260503182007 17 0.0 0.0 0.00 0.00 0.00 99 1013.7
20260503180956 17 0.0 0.0 0.00 0.00 0.00 99 1013.8
20260503175945 16 0.0 0.0 0.00 0.00 0.00 99 1013.8
20260503174934 17 0.0 0.0 0.00 0.00 0.00 99 1013.7
20260503173923 17 0.0 0.0 0.00 0.00 0.00 99 1013.7
20260503172917 17 0.0 0.0 0.00 0.00 0.00 99 1013.6
20260503171900 16 0.0 0.0 0.00 0.00 0.00 99 1013.7
20260503170849 16 0.0 0.0 0.00 0.00 0.00 99 1013.8
20260503150337 17 0.0 0.0 0.00 0.00 0.00 99 1014.3
20260503140231 18 0.0 0.0 0.00 0.00 0.00 99 1015.0
20260503131135 18 0.0 0.0 0.00 0.00 0.00 99 1015.0
20260503130124 18 0.0 0.0 0.00 0.00 0.00 99 1015.0
20260503110756 20 0.0 0.0 0.00 0.00 0.00 99 1015.7